GW1710 Weather Reports


Display with metric or nautical units.
time (UTC)temp
F
wind
direction
speed
MPH
gust
MPH
rain 1hr
in
rain 24hr
in
rain mn
in
humidity
%
barometer
mb
20260506135051 61 173 0.0 8.0 0.05 0.06 0.06 91 1008.8
20260506134557 61 194 0.0 8.0 0.05 0.06 0.06 91 1008.8
20260506134053 61 221 1.0 8.0 0.04 0.05 0.05 91 1008.9
20260506133551 62 198 1.0 7.0 0.03 0.04 0.04 90 1008.8
20260506133102 62 232 0.0 5.0 0.03 0.04 0.04 90 1008.8
20260506132550 62 155 0.0 4.0 0.03 0.03 0.03 90 1008.8
20260506132052 62 0 0.0 2.0 0.03 0.03 0.03 89 1008.8
20260506131555 62 0 0.0 3.0 0.03 0.03 0.03 89 1008.7
20260506131054 62 0 0.0 3.0 0.03 0.03 0.03 89 1008.8
20260506130552 62 0 0.0 6.0 0.02 0.02 0.02 87 1008.8
20260506130053 62 0 0.0 6.0 0.02 0.02 0.02 87 1009.1
20260506125552 63 209 0.0 3.0 0.02 0.02 0.02 86 1009.0
20260506125051 63 0 0.0 4.0 0.01 0.01 0.01 86 1009.1
20260506124556 63 0 0.0 4.0 0.01 0.01 0.01 85 1009.1
20260506124051 63 232 0.0 2.0 0.01 0.01 0.01 86 1009.2
20260506123554 63 0 0.0 2.0 0.01 0.01 0.01 85 1009.1
20260506123052 63 198 0.0 2.0 0.01 0.01 0.01 84 1009.2
20260506122551 63 0 0.0 2.0 0.00 0.00 0.00 84 1009.3
20260506122050 63 226 0.0 3.0 0.00 0.00 0.00 84 1009.4
20260506121553 64 185 0.0 3.0 0.00 0.00 0.00 83 1009.4
20260506121051 64 0 0.0 2.0 0.00 0.00 0.00 83 1009.3
20260506120551 64 0 0.0 2.0 0.00 0.00 0.00 83 1009.2
20260506120052 64 171 0.0 5.0 0.00 0.00 0.00 83 1009.0
20260506115550 64 178 0.0 5.0 0.00 0.00 0.00 82 1009.0
20260506115051 64 0 0.0 5.0 0.00 0.00 0.00 81 1008.9
20260506114558 64 184 0.0 4.0 0.00 0.00 0.00 80 1008.7
20260506114051 64 234 0.0 4.0 0.00 0.00 0.00 80 1008.8
20260506113551 64 0 0.0 3.0 0.00 0.00 0.00 79 1008.6
20260506113059 64 185 0.0 3.0 0.00 0.00 0.00 80 1008.8
20260506112552 65 198 0.0 3.0 0.00 0.00 0.00 80 1008.8
20260506112052 65 217 0.0 4.0 0.00 0.00 0.00 79 1008.8
20260506111552 65 0 0.0 7.0 0.00 0.00 0.00 79 1008.6
20260506111051 65 233 0.0 7.0 0.00 0.00 0.00 78 1008.5
20260506110553 65 214 1.0 8.0 0.00 0.00 0.00 77 1008.5
20260506110058 65 219 1.0 8.0 0.00 0.00 0.00 77 1008.4
20260506105553 65 0 1.0 8.0 0.00 0.00 0.00 77 1008.3
20260506105050 65 0 0.0 7.0 0.00 0.00 0.00 77 1008.3
20260506104558 65 241 0.0 10.0 0.00 0.00 0.00 77 1008.3
20260506104050 65 194 1.0 11.0 0.00 0.00 0.00 77 1008.3
20260506103551 65 169 1.0 11.0 0.00 0.00 0.00 76 1008.3
20260506103100 65 0 1.0 10.0 0.00 0.00 0.00 76 1008.2
20260506102551 65 158 1.0 8.0 0.00 0.00 0.00 76 1008.1
20260506102051 66 245 0.0 9.0 0.00 0.00 0.00 76 1008.0
20260506101556 66 199 0.0 9.0 0.00 0.00 0.00 76 1008.0
20260506101051 65 172 2.0 9.0 0.00 0.00 0.00 76 1008.0
20260506100551 66 205 1.0 9.0 0.00 0.00 0.00 75 1007.9
20260506100056 66 205 1.0 10.0 0.00 0.00 0.00 75 1007.8
20260506095551 66 184 1.0 10.0 0.00 0.00 0.00 75 1007.9
20260506095051 66 186 0.0 9.0 0.00 0.00 0.00 75 1007.8
20260506094555 66 232 0.0 5.0 0.00 0.00 0.00 75 1007.8
20260506094050 65 185 0.0 8.0 0.00 0.00 0.00 75 1007.8
20260506093550 65 0 0.0 8.0 0.00 0.00 0.00 74 1007.8
20260506093052 66 174 0.0 4.0 0.00 0.00 0.00 74 1007.9
20260506092551 66 0 0.0 4.0 0.00 0.00 0.00 74 1007.9
20260506092051 66 0 0.0 3.0 0.00 0.00 0.00 74 1007.9
20260506091554 66 0 0.0 11.0 0.00 0.00 0.00 73 1008.0
20260506091051 66 162 0.0 11.0 0.00 0.00 0.00 73 1008.1
20260506090552 66 0 0.0 4.0 0.00 0.00 0.00 73 1008.2
20260506090051 66 0 0.0 4.0 0.00 0.00 0.00 73 1008.1
20260506085551 66 0 0.0 4.0 0.00 0.00 0.00 73 1008.1
20260506085051 66 164 0.0 9.0 0.00 0.00 0.00 73 1008.0
20260506084554 66 0 0.0 9.0 0.00 0.00 0.00 72 1008.1
20260506084051 66 190 1.0 9.0 0.00 0.00 0.00 72 1008.1
20260506083550 66 217 0.0 5.0 0.00 0.00 0.00 72 1008.1
20260506083055 66 172 0.0 5.0 0.00 0.00 0.00 72 1008.1
20260506082552 66 0 0.0 1.0 0.00 0.00 0.00 72 1008.0
20260506082051 66 0 0.0 6.0 0.00 0.00 0.00 71 1008.0
20260506081557 66 0 0.0 6.0 0.00 0.00 0.00 71 1008.1
20260506081052 66 160 0.0 5.0 0.00 0.00 0.00 70 1008.0
20260506080551 66 0 0.0 5.0 0.00 0.00 0.00 69 1008.1
20260506073054 67 0 0.0 3.0 0.00 0.00 0.00 67 1008.3
20260506072551 67 0 0.0 3.0 0.00 0.00 0.00 66 1008.3
20260506072051 67 0 0.0 2.0 0.00 0.00 0.00 65 1008.4
20260506071554 68 0 0.0 3.0 0.00 0.00 0.00 65 1008.4
20260506071051 68 0 0.0 3.0 0.00 0.00 0.00 64 1008.3
20260506070551 68 0 0.0 3.0 0.00 0.00 0.00 64 1008.4
20260506062050 69 188 0.0 7.0 0.00 0.00 0.00 62 1008.9
20260506061555 69 186 0.0 4.0 0.00 0.00 0.00 62 1008.9
20260506061053 69 226 0.0 4.0 0.00 0.00 0.00 61 1009.0
20260506060550 69 214 0.0 4.0 0.00 0.00 0.00 61 1009.0
20260506051050 69 0 0.0 5.0 0.00 0.00 0.00 59 1009.4
20260506050550 69 200 0.0 2.0 0.00 0.00 0.00 59 1009.3
20260506045054 68 232 1.0 9.0 0.00 0.00 0.00 59 1009.4
20260506044619 69 0 0.0 4.0 0.00 0.00 0.00 59 1009.5
20260506044050 69 182 0.0 6.0 0.00 0.00 0.00 59 1009.5
20260506043550 69 0 0.0 8.0 0.00 0.00 0.00 59 1009.4
20260506043049 69 0 0.0 8.0 0.00 0.00 0.00 58 1009.4
20260506042550 69 169 0.0 5.0 0.00 0.00 0.00 58 1009.5
20260506042047 69 0 1.0 5.0 0.00 0.00 0.00 58 1009.5
20260506041553 69 199 0.0 5.0 0.00 0.00 0.00 58 1009.5
20260506041048 69 0 0.0 6.0 0.00 0.00 0.00 58 1009.6
20260506040550 69 0 0.0 6.0 0.00 0.00 0.00 58 1009.6
20260506040052 69 0 0.0 2.0 0.00 0.00 0.00 58 1009.6
20260506035550 69 209 0.0 2.0 0.00 0.00 0.00 58 1009.5
20260506035050 69 221 0.0 2.0 0.00 0.00 0.00 58 1009.6
20260506034549 69 216 0.0 2.0 0.00 0.00 0.00 58 1009.5
20260506034049 68 0 0.0 2.0 0.00 0.00 0.00 58 1009.5
20260506033548 68 162 0.0 2.0 0.00 0.00 0.00 58 1009.6
20260506033053 68 0 0.0 2.0 0.00 0.00 0.00 58 1009.5
20260506032548 69 0 0.0 1.0 0.00 0.00 0.00 58 1009.5
20260506032048 69 0 0.0 1.0 0.00 0.00 0.00 58 1009.5
20260506031549 69 0 0.0 1.0 0.00 0.00 0.00 58 1009.6
20260506031053 69 208 0.0 1.0 0.00 0.00 0.00 58 1009.6
20260506030552 69 0 0.0 1.0 0.00 0.00 0.00 57 1009.6
20260506030057 69 0 0.0 3.0 0.00 0.00 0.00 57 1009.6
20260506025551 69 0 0.0 3.0 0.00 0.00 0.00 56 1009.6
20260506025050 70 0 0.0 3.0 0.00 0.00 0.00 56 1009.5
20260506024559 70 0 0.0 7.0 0.00 0.00 0.00 55 1009.6
20260506024052 70 0 0.0 7.0 0.00 0.00 0.00 55 1009.6
20260506023550 70 200 0.0 2.0 0.00 0.00 0.00 55 1009.5
20260506023100 70 0 0.0 1.0 0.00 0.00 0.00 54 1009.5
20260506022552 70 0 0.0 1.0 0.00 0.00 0.00 54 1009.4
20260506022052 70 0 0.0 1.0 0.00 0.00 0.00 53 1009.5
20260506021606 71 0 0.0 1.0 0.00 0.00 0.00 53 1009.5
20260506021052 71 159 0.0 1.0 0.00 0.00 0.00 52 1009.4
20260506020551 71 0 0.0 2.0 0.00 0.00 0.00 51 1009.4
20260506020058 72 0 0.0 2.0 0.00 0.00 0.00 51 1009.4
20260506015553 72 207 0.0 2.0 0.00 0.00 0.00 50 1009.4
20260506015053 72 216 0.0 6.0 0.00 0.00 0.00 50 1009.4
20260506014603 72 0 0.0 6.0 0.00 0.00 0.00 49 1009.4
20260506014051 72 0 0.0 4.0 0.00 0.00 0.00 49 1009.4
20260506013552 72 0 0.0 4.0 0.00 0.00 0.00 49 1009.2
20260506013104 73 0 0.0 2.0 0.00 0.00 0.00 48 1009.2
20260506012552 73 0 0.0 1.0 0.00 0.00 0.00 48 1009.1
20260506012053 73 0 0.0 1.0 0.00 0.00 0.00 47 1009.0
20260506011552 74 0 0.0 7.0 0.00 0.00 0.00 46 1009.0
20260506011052 74 0 1.0 7.0 0.00 0.00 0.00 45 1008.8
20260506010552 74 0 0.0 6.0 0.00 0.00 0.00 45 1008.7
20260506010110 75 0 0.0 6.0 0.00 0.00 0.00 43 1008.6
20260506005552 75 117 0.0 6.0 0.00 0.00 0.00 42 1008.5
20260506005051 76 0 0.0 6.0 0.00 0.00 0.00 41 1008.5
20260506004555 76 180 1.0 5.0 0.00 0.00 0.00 40 1008.5
20260506004051 76 0 0.0 4.0 0.00 0.00 0.00 40 1008.4
20260506003552 76 191 0.0 7.0 0.00 0.00 0.00 39 1008.3
20260506003056 76 0 0.0 7.0 0.00 0.00 0.00 39 1008.3
20260506002552 76 0 0.0 6.0 0.00 0.00 0.00 40 1008.3
20260506002052 77 208 0.0 3.0 0.00 0.00 0.00 40 1008.4
20260506001553 77 180 0.0 7.0 0.00 0.00 0.00 39 1008.3
20260506001053 77 217 0.0 7.0 0.00 0.00 0.00 39 1008.3
20260506000553 78 0 1.0 11.0 0.00 0.00 0.00 39 1008.2
20260506000052 78 238 2.0 12.0 0.00 0.00 0.00 38 1008.1
20260505235553 78 0 0.0 12.0 0.00 0.00 0.00 38 1008.2
20260505235055 78 231 1.0 12.0 0.00 0.00 0.00 38 1008.1
20260505234605 78 204 1.0 11.0 0.00 0.00 0.00 38 1008.1
20260505234052 78 234 2.0 11.0 0.00 0.00 0.00 39 1008.1
20260505233555 79 203 1.0 8.0 0.00 0.00 0.00 38 1008.1
20260505233051 79 236 0.0 10.0 0.00 0.00 0.00 38 1008.0
20260505232555 79 225 0.0 12.0 0.00 0.00 0.00 38 1008.0
20260505232052 79 234 1.0 12.0 0.00 0.00 0.00 37 1008.0
20260505231553 79 223 0.0 8.0 0.00 0.00 0.00 36 1008.0
20260505231052 80 0 1.0 16.0 0.00 0.00 0.00 36 1007.8
20260505230552 80 230 3.0 16.0 0.00 0.00 0.00 36 1007.9
20260505230054 80 248 1.0 14.0 0.00 0.00 0.00 36 1007.8
20260505225552 80 0 2.0 14.0 0.00 0.00 0.00 36 1007.8
20260505225052 80 0 0.0 9.0 0.00 0.00 0.00 36 1007.8
20260505224554 80 184 1.0 14.0 0.00 0.00 0.00 35 1007.8
20260505224054 81 0 0.0 14.0 0.00 0.00 0.00 34 1007.9
20260505223553 81 228 1.0 12.0 0.00 0.00 0.00 34 1007.9
20260505223055 81 207 2.0 11.0 0.00 0.00 0.00 35 1007.9
20260505222552 81 201 2.0 11.0 0.00 0.00 0.00 35 1008.0
20260505222053 81 192 0.0 12.0 0.00 0.00 0.00 35 1007.9
20260505221553 81 0 2.0 18.0 0.00 0.00 0.00 34 1008.0
20260505221057 81 205 3.0 18.0 0.00 0.00 0.00 34 1007.9
20260505220552 81 179 4.0 18.0 0.00 0.00 0.00 35 1007.9
20260505220055 82 187 3.0 18.0 0.00 0.00 0.00 34 1007.9
20260505215552 82 176 4.0 16.0 0.00 0.00 0.00 34 1007.8
20260505215056 82 219 4.0 14.0 0.00 0.00 0.00 35 1007.9
20260505214609 82 221 1.0 15.0 0.00 0.00 0.00 36 1007.8
20260505214052 82 214 3.0 16.0 0.00 0.00 0.00 36 1007.8
20260505213553 82 207 2.0 16.0 0.00 0.00 0.00 36 1007.9
20260505213101 82 260 7.0 19.0 0.00 0.00 0.00 36 1007.7
20260505212553 82 0 2.0 19.0 0.00 0.00 0.00 35 1007.8
20260505212052 83 236 5.0 19.0 0.00 0.00 0.00 34 1007.7
20260505211556 83 229 4.0 19.0 0.00 0.00 0.00 35 1007.7
20260505211052 83 211 3.0 19.0 0.00 0.00 0.00 35 1007.6
20260505210552 83 0 2.0 19.0 0.00 0.00 0.00 37 1007.7
20260505210059 83 286 5.0 18.0 0.00 0.00 0.00 36 1007.7
20260505205552 83 254 4.0 19.0 0.00 0.00 0.00 35 1007.7
20260505205056 83 244 5.0 19.0 0.00 0.00 0.00 35 1007.5
20260505204605 83 202 1.0 16.0 0.00 0.00 0.00 36 1007.6
20260505204052 83 0 4.0 16.0 0.00 0.00 0.00 35 1007.6
20260505203552 83 297 2.0 16.0 0.00 0.00 0.00 36 1007.7
20260505203059 83 194 2.0 16.0 0.00 0.00 0.00 36 1007.8
20260505202553 83 0 4.0 16.0 0.00 0.00 0.00 38 1007.7
20260505202052 82 223 1.0 14.0 0.00 0.00 0.00 37 1007.8
20260505201558 82 195 4.0 17.0 0.00 0.00 0.00 36 1007.9
20260505201053 83 232 5.0 17.0 0.00 0.00 0.00 34 1008.0
20260505200551 83 214 3.0 20.0 0.00 0.00 0.00 35 1007.9
20260505200106 83 196 4.0 22.0 0.00 0.00 0.00 35 1007.9
20260505195551 83 219 5.0 22.0 0.00 0.00 0.00 36 1008.0
20260505195051 83 222 5.0 21.0 0.00 0.00 0.00 34 1008.1
20260505194605 83 256 6.0 22.0 0.00 0.00 0.00 35 1008.1
20260505194051 83 165 4.0 22.0 0.00 0.00 0.00 35 1008.2
20260505193552 82 0 6.0 22.0 0.00 0.00 0.00 36 1008.1
20260505193057 82 0 3.0 19.0 0.00 0.00 0.00 35 1008.1
20260505192552 83 188 5.0 19.0 0.00 0.00 0.00 37 1008.1
20260505192052 82 256 4.0 17.0 0.00 0.00 0.00 38 1008.2
20260505191556 82 266 3.0 20.0 0.00 0.00 0.00 35 1008.3
20260505191052 82 199 3.0 20.0 0.00 0.00 0.00 36 1008.3
20260505190552 83 220 2.0 18.0 0.00 0.00 0.00 36 1008.4
20260505190056 82 213 2.0 24.0 0.00 0.00 0.00 37 1008.5
20260505185552 82 282 8.0 24.0 0.00 0.00 0.00 36 1008.5
20260505185053 82 213 4.0 21.0 0.00 0.00 0.00 36 1008.5
20260505184557 82 197 8.0 18.0 0.00 0.00 0.00 38 1008.5
20260505184052 82 230 5.0 18.0 0.00 0.00 0.00 37 1008.7
20260505183551 83 223 3.0 15.0 0.00 0.00 0.00 37 1008.7
20260505183057 83 286 2.0 12.0 0.00 0.00 0.00 39 1008.8
20260505182551 83 193 1.0 16.0 0.00 0.00 0.00 38 1008.7
20260505182051 82 236 2.0 18.0 0.00 0.00 0.00 37 1008.8
20260505181553 83 273 3.0 18.0 0.00 0.00 0.00 39 1008.9
20260505181052 83 0 1.0 13.0 0.00 0.00 0.00 38 1008.9
20260505180555 83 169 1.0 13.0 0.00 0.00 0.00 40 1008.9
20260505180108 83 222 1.0 16.0 0.00 0.00 0.00 41 1008.9
20260505175552 82 260 2.0 16.0 0.00 0.00 0.00 40 1009.0
20260505175052 82 270 3.0 18.0 0.00 0.00 0.00 39 1009.1
20260505174603 82 225 2.0 18.0 0.00 0.00 0.00 40 1009.1
20260505174052 81 0 2.0 15.0 0.00 0.00 0.00 41 1009.2
20260505173551 82 269 3.0 12.0 0.00 0.00 0.00 41 1009.2
20260505173051 81 258 2.0 12.0 0.00 0.00 0.00 39 1009.3
20260505172552 82 0 0.0 10.0 0.00 0.00 0.00 40 1009.4
20260505172051 82 0 2.0 15.0 0.00 0.00 0.00 42 1009.4
20260505171551 81 261 2.0 15.0 0.00 0.00 0.00 45 1009.5
20260505171053 81 265 2.0 15.0 0.00 0.00 0.00 43 1009.5
20260505170557 81 0 2.0 11.0 0.00 0.00 0.00 45 1009.6
20260505170053 81 286 0.0 11.0 0.00 0.00 0.00 44 1009.5
20260505165554 80 262 3.0 20.0 0.00 0.00 0.00 43 1009.8
20260505165052 81 272 1.0 20.0 0.00 0.00 0.00 44 1009.9
20260505164552 80 275 2.0 12.0 0.00 0.00 0.00 44 1009.9
20260505164052 80 238 1.0 12.0 0.00 0.00 0.00 45 1010.0
20260505163552 80 284 2.0 14.0 0.00 0.00 0.00 43 1010.2
20260505163054 80 219 2.0 14.0 0.00 0.00 0.00 45 1010.2
20260505162551 80 229 1.0 16.0 0.00 0.00 0.00 45 1010.3
20260505162053 80 296 1.0 16.0 0.00 0.00 0.00 46 1010.2
20260505161604 80 284 2.0 16.0 0.00 0.00 0.00 45 1010.3
20260505161052 80 251 1.0 7.0 0.00 0.00 0.00 44 1010.3
20260505160552 80 323 1.0 16.0 0.00 0.00 0.00 45 1010.3
20260505153053 79 225 3.0 12.0 0.00 0.00 0.00 47 1010.1
20260505152553 78 276 2.0 12.0 0.00 0.00 0.00 48 1010.1
20260505152054 78 270 1.0 13.0 0.00 0.00 0.00 49 1010.2
20260505151552 78 285 3.0 16.0 0.00 0.00 0.00 47 1010.3
20260505151051 78 291 3.0 16.0 0.00 0.00 0.00 48 1010.3
20260505150552 78 259 1.0 14.0 0.00 0.00 0.00 48 1010.3
20260505140552 74 209 1.0 8.0 0.00 0.00 0.00 53 1010.5
20260505140105 74 266 1.0 7.0 0.00 0.00 0.00 55 1010.6